Regional Weather Roundup
Issued by NWS Green Bay, WI

Home | Current Version | Previous Version | Text Only | Print | Product List | Glossary On
Versions: 1 2 3 4 5 6 7 8 9 10 11 12 13 14 15 16 17 18 19 20 21 22 23 24 25 26 27 28 29 30 31 32 33 34 35 36 37 38 39 40 41 42 43 44 45 46 47 48 49 50
000
ASUS43 KGRB 260511
RWRGRB

NORTH-CENTRAL AND NORTHEAST WISCONSIN REGIONAL WEATHER ROUNDUP
NATIONAL WEATHER SERVICE GREEN BAY WI
1200 AM CDT THU APR 26 2018

WIZ005-009-010>012-018-019-260600-
NORTH CENTRAL WISCONSIN

CITY           SKY/WX    TMP DP  RH WIND       PRES   REMARKS
IRONWOOD       FAIR      32  24  72 CALM      29.93S
MANITOWISH WTR FAIR      28  23  79 CALM      29.93S
ARBOR VITAE    NOT AVBL
EAGLE RIVER    FAIR      31  22  71 CALM      29.93F
LAND O LAKES   FAIR      28  23  80 CALM      29.95F
RHINELANDER    FAIR      31  23  72 CALM      29.94F
PHILLIPS       FAIR      32  26  79 CALM      29.94S
ANTIGO         FAIR      34  31  90 CALM      29.95F
TOMAHAWK       FAIR      29  24  82 CALM      29.95F
MERRILL        FAIR      31  25  78 CALM      29.95F
$$

WIZ013-073-260600-
NORTHEAST WISCONSIN

CITY           SKY/WX    TMP DP  RH WIND       PRES   REMARKS
IRON MOUNTAIN  FAIR      35  26  69 CALM      29.94S
MARINETTE      FAIR      36  27  69 SW5       29.98F
OCONTO         FAIR      33  28  83 CALM      29.97F
$$

WIZ017-030-035>037-045-260600-
CENTRAL WISCONSIN

CITY           SKY/WX    TMP DP  RH WIND       PRES   REMARKS
MEDFORD        FAIR      34  29  83 CALM      29.94F
WAUSAU         FAIR      37  27  67 CALM      29.93F
MOSINEE        FAIR      39  27  60 W6        29.96F
MARSHFIELD     FAIR      40  30  67 CALM      29.94F
WISC RAPIDS    FAIR      35  26  69 CALM      29.97F
STEVENS POINT  FAIR      32  27  82 CALM      29.97S
WAUPACA        FAIR      41  32  70 CALM      29.97S
SHAWANO        FAIR      37  32  84 CALM      29.96S
CLINTONVILLE   FAIR      42  29  59 SW6       29.95F
WAUTOMA        FAIR      32  28  85 CALM      29.97F
$$

WIZ038-039-048-051-260600-
FOX VALLEY

CITY           SKY/WX    TMP DP  RH WIND       PRES   REMARKS
NWS GREEN BAY  FAIR      39  31  72 S5        29.97F
APPLETON       FAIR      39  32  75 CALM      29.95S
OSHKOSH        FAIR      39  33  79 S9        29.96F
FOND DU LAC    FAIR      37  31  78 S8        29.97F
$$

WIZ022-050-052-260600-
EAST CENTRAL WISCONSIN

CITY           SKY/WX    TMP DP  RH WIND       PRES   REMARKS
EPHRAIM        FAIR      35  26  70 S5        29.96S
WASHINGTON ISL FAIR      28  27  93 CALM      29.97S
STURGEON BAY   FAIR      36  28  73 S6        29.97F
MANITOWOC      FAIR      36  28  73 S3        29.98F
SHEBOYGAN      FAIR      36  30  79 SW3       29.98F
$$

LMZ563-521-522-541>543-260600-
LAKESHORE

STATION/POSITION TIME  TEMP    WIND        PRES    VSBY  WAVE
                       AIR SEA DIR/SP/G                  HT/PER
                 (UTC) (F)     (DEG/KT/KT) (MB)    (MI)  (FT/S)
SHEBOYGAN LKSHOR 0500   39     220/  3/  3 1015.7F
KEWAUNEE LKSHORE 0448   39     220/  4/  5 1014.4F
NORTHPORT PIER   0440   35                 1014.9F
SISTER BAY LKSHO 0427   37     150/  6/  8   N/A
MENOMINEE LKSHOR 0448   39     190/  5/  8 1014.6F
$$




USA.gov is the U.S. government's official web portal to all federal, state and local government web resources and services.